| time (UTC) | temp F | wind direction | speed knots | gust knots | rain 1hr in | rain 24hr in | rain mn in | humidity % | barometer mb |
| 20260904164025 | 88 | 225 | 0.9 | 7.0 | 0.00 | 0.00 | 0.00 | 42 | 1017.6 |
| 20260904163524 | 88 | 257 | 1.7 | 7.0 | 0.00 | 0.00 | 0.00 | 41 | 1017.6 |
| 20260904163024 | 88 | 322 | 1.7 | 7.8 | 0.00 | 0.00 | 0.00 | 41 | 1017.6 |
| 20260904162528 | 88 | 342 | 0.0 | 7.8 | 0.00 | 0.00 | 0.00 | 41 | 1017.7 |
| 20260904162023 | 88 | 264 | 0.9 | 7.8 | 0.00 | 0.00 | 0.00 | 41 | 1017.6 |
| 20260904161525 | 88 | 225 | 1.7 | 7.8 | 0.00 | 0.00 | 0.00 | 40 | 1017.7 |
| 20260904161023 | 89 | 273 | 1.7 | 7.0 | 0.00 | 0.00 | 0.00 | 40 | 1017.6 |
| 20260904160526 | 89 | 177 | 0.9 | 6.1 | 0.00 | 0.00 | 0.00 | 40 | 1017.7 |
| 20260904160023 | 89 | 169 | 1.7 | 6.1 | 0.00 | 0.00 | 0.00 | 40 | 1017.7 |
| 20260904155526 | 89 | 225 | 1.7 | 5.2 | 0.00 | 0.00 | 0.00 | 40 | 1017.7 |
| 20260904155022 | 89 | 328 | 1.7 | 4.3 | 0.00 | 0.00 | 0.00 | 40 | 1017.7 |
| 20260904154526 | 89 | 237 | 0.9 | 8.7 | 0.00 | 0.00 | 0.00 | 40 | 1017.7 |
| 20260904154027 | 89 | 180 | 2.6 | 8.7 | 0.00 | 0.00 | 0.00 | 40 | 1017.7 |
| 20260904153525 | 89 | 275 | 1.7 | 4.3 | 0.00 | 0.00 | 0.00 | 40 | 1017.7 |
| 20260904153022 | 89 | 238 | 1.7 | 4.3 | 0.00 | 0.00 | 0.00 | 40 | 1017.7 |
| 20260904152523 | 89 | 224 | 0.9 | 6.1 | 0.00 | 0.00 | 0.00 | 40 | 1017.7 |
| 20260904152022 | 89 | 311 | 1.7 | 6.1 | 0.00 | 0.00 | 0.00 | 40 | 1017.8 |
| 20260904151521 | 89 | 279 | 0.0 | 5.2 | 0.00 | 0.00 | 0.00 | 41 | 1017.7 |
| 20260904151021 | 89 | 339 | 0.0 | 5.2 | 0.00 | 0.00 | 0.00 | 40 | 1017.7 |
| 20260904150526 | 89 | 101 | 1.7 | 10.4 | 0.00 | 0.00 | 0.00 | 39 | 1017.7 |
| 20260904150031 | 89 | 69 | 0.9 | 10.4 | 0.00 | 0.00 | 0.00 | 40 | 1017.8 |
| 20260904145520 | 89 | 330 | 0.0 | 3.5 | 0.00 | 0.00 | 0.00 | 40 | 1017.7 |
| 20260904145020 | 89 | 168 | 0.9 | 3.5 | 0.00 | 0.00 | 0.00 | 40 | 1017.8 |
| 20260904144520 | 90 | 63 | 0.9 | 3.5 | 0.00 | 0.00 | 0.00 | 40 | 1017.8 |
| 20260904144022 | 90 | 184 | 1.7 | 4.3 | 0.00 | 0.00 | 0.00 | 40 | 1017.9 |
| 20260904143519 | 90 | 179 | 1.7 | 4.3 | 0.00 | 0.00 | 0.00 | 40 | 1018.0 |
| 20260904143019 | 90 | 114 | 0.9 | 3.5 | 0.00 | 0.00 | 0.00 | 40 | 1018.0 |
| 20260904142518 | 90 | 331 | 0.9 | 5.2 | 0.00 | 0.00 | 0.00 | 40 | 1018.1 |
| 20260904142018 | 90 | 68 | 0.9 | 7.0 | 0.00 | 0.00 | 0.00 | 40 | 1018.2 |
| 20260904141529 | 90 | 197 | 0.9 | 7.8 | 0.00 | 0.00 | 0.00 | 40 | 1018.2 |
| 20260904141015 | 90 | 72 | 2.6 | 7.8 | 0.00 | 0.00 | 0.00 | 40 | 1018.3 |
| 20260904140515 | 90 | 313 | 0.9 | 5.2 | 0.00 | 0.00 | 0.00 | 40 | 1018.4 |
| 20260904140036 | 90 | 339 | 1.7 | 5.2 | 0.00 | 0.00 | 0.00 | 40 | 1018.5 |
| 20260904135515 | 89 | 223 | 0.9 | 7.8 | 0.00 | 0.00 | 0.00 | 40 | 1018.4 |
| 20260904135014 | 89 | 234 | 1.7 | 7.8 | 0.00 | 0.00 | 0.00 | 40 | 1018.5 |
| 20260904134515 | 89 | 204 | 2.6 | 7.0 | 0.00 | 0.00 | 0.00 | 40 | 1018.6 |
| 20260904134013 | 89 | 11 | 2.6 | 7.0 | 0.00 | 0.00 | 0.00 | 41 | 1018.7 |
| 20260904133512 | 89 | 211 | 2.6 | 5.2 | 0.00 | 0.00 | 0.00 | 41 | 1018.8 |
| 20260904133013 | 90 | 243 | 0.9 | 4.3 | 0.00 | 0.00 | 0.00 | 41 | 1018.9 |
| 20260904132513 | 90 | 355 | 0.9 | 4.3 | 0.00 | 0.00 | 0.00 | 41 | 1018.9 |
| 20260904132012 | 90 | 209 | 1.7 | 7.8 | 0.00 | 0.00 | 0.00 | 40 | 1018.9 |
| 20260904131511 | 90 | 116 | 0.9 | 7.8 | 0.00 | 0.00 | 0.00 | 40 | 1018.9 |
| 20260904131012 | 90 | 88 | 1.7 | 6.1 | 0.00 | 0.00 | 0.00 | 39 | 1019.1 |
| 20260904130515 | 90 | 84 | 1.7 | 6.1 | 0.00 | 0.00 | 0.00 | 40 | 1019.0 |
| 20260904130010 | 90 | 138 | 1.7 | 9.6 | 0.00 | 0.00 | 0.00 | 39 | 1019.1 |
| 20260904125509 | 90 | 91 | 0.9 | 6.1 | 0.00 | 0.00 | 0.00 | 40 | 1019.2 |
| 20260904125009 | 90 | 18 | 1.7 | 6.1 | 0.00 | 0.00 | 0.00 | 40 | 1019.1 |
| 20260904124509 | 89 | 259 | 1.7 | 7.8 | 0.00 | 0.00 | 0.00 | 40 | 1019.2 |
| 20260904124008 | 89 | 109 | 0.9 | 7.8 | 0.00 | 0.00 | 0.00 | 41 | 1019.2 |
| 20260904123508 | 89 | 126 | 1.7 | 8.7 | 0.00 | 0.00 | 0.00 | 41 | 1019.3 |
| 20260904123007 | 89 | 80 | 2.6 | 8.7 | 0.00 | 0.00 | 0.00 | 40 | 1019.5 |
| 20260904122508 | 89 | 59 | 1.7 | 7.0 | 0.00 | 0.00 | 0.00 | 40 | 1019.5 |
| 20260904122006 | 89 | 174 | 0.9 | 7.0 | 0.00 | 0.00 | 0.00 | 41 | 1019.5 |
| 20260904121507 | 90 | 355 | 2.6 | 7.0 | 0.00 | 0.00 | 0.00 | 39 | 1019.6 |
| 20260904121004 | 90 | 103 | 0.9 | 7.0 | 0.00 | 0.00 | 0.00 | 40 | 1019.6 |
| 20260904120504 | 88 | 336 | 2.6 | 7.0 | 0.00 | 0.00 | 0.00 | 40 | 1019.7 |
| 20260904120010 | 89 | 193 | 0.0 | 7.0 | 0.00 | 0.00 | 0.00 | 40 | 1019.8 |
| 20260904115503 | 88 | 111 | 1.7 | 7.0 | 0.00 | 0.00 | 0.00 | 40 | 1019.8 |
| 20260904115003 | 88 | 307 | 0.9 | 4.3 | 0.00 | 0.00 | 0.00 | 40 | 1019.8 |
| 20260904114506 | 89 | 242 | 0.9 | 7.0 | 0.00 | 0.00 | 0.00 | 39 | 1019.9 |
| 20260904114002 | 89 | 65 | 0.0 | 2.6 | 0.00 | 0.00 | 0.00 | 39 | 1019.9 |
| 20260904113501 | 89 | 247 | 0.0 | 4.3 | 0.00 | 0.00 | 0.00 | 39 | 1020.0 |
| 20260904113003 | 89 | 62 | 0.9 | 4.3 | 0.00 | 0.00 | 0.00 | 40 | 1020.0 |
| 20260904112601 | 89 | 133 | 1.7 | 4.3 | 0.00 | 0.00 | 0.00 | 39 | 1020.1 |
| 20260904112058 | 89 | 182 | 1.7 | 3.5 | 0.00 | 0.00 | 0.00 | 40 | 1020.1 |
| 20260904111558 | 87 | 230 | 0.0 | 2.6 | 0.00 | 0.00 | 0.00 | 42 | 1020.2 |
| 20260904111057 | 87 | 230 | 0.0 | 5.2 | 0.00 | 0.00 | 0.00 | 41 | 1020.3 |
| 20260904110556 | 87 | 326 | 0.9 | 5.2 | 0.00 | 0.00 | 0.00 | 41 | 1020.4 |
| 20260904110058 | 88 | 336 | 1.7 | 3.5 | 0.00 | 0.00 | 0.00 | 40 | 1020.4 |
| 20260904105556 | 88 | 179 | 0.0 | 4.3 | 0.00 | 0.00 | 0.00 | 42 | 1020.4 |
| 20260904105053 | 86 | 179 | 0.9 | 4.3 | 0.00 | 0.00 | 0.00 | 42 | 1020.5 |
| 20260904104552 | 86 | 178 | 0.0 | 3.5 | 0.00 | 0.00 | 0.00 | 42 | 1020.6 |
| 20260904104050 | 85 | 128 | 0.9 | 3.5 | 0.00 | 0.00 | 0.00 | 43 | 1020.7 |
| 20260904103550 | 85 | 100 | 0.9 | 4.3 | 0.00 | 0.00 | 0.00 | 44 | 1020.9 |
| 20260904103049 | 85 | 323 | 0.9 | 7.0 | 0.00 | 0.00 | 0.00 | 44 | 1020.9 |
| 20260904102548 | 85 | 194 | 0.9 | 7.0 | 0.00 | 0.00 | 0.00 | 43 | 1020.9 |
| 20260904102050 | 85 | 177 | 0.0 | 3.5 | 0.00 | 0.00 | 0.00 | 43 | 1021.1 |
| 20260904101552 | 85 | 177 | 0.0 | 3.5 | 0.00 | 0.00 | 0.00 | 43 | 1021.2 |
| 20260904101044 | 84 | 190 | 0.0 | 3.5 | 0.00 | 0.00 | 0.00 | 44 | 1021.3 |
| 20260904100541 | 84 | 177 | 0.9 | 3.5 | 0.00 | 0.00 | 0.00 | 43 | 1021.3 |
| 20260904100043 | 84 | 176 | 0.0 | 3.5 | 0.00 | 0.00 | 0.00 | 42 | 1021.4 |
| 20260904095539 | 83 | 176 | 0.9 | 4.3 | 0.00 | 0.00 | 0.00 | 43 | 1021.4 |
| 20260904095037 | 83 | 246 | 0.9 | 3.5 | 0.00 | 0.00 | 0.00 | 45 | 1021.5 |
| 20260904094542 | 83 | 181 | 0.9 | 3.5 | 0.00 | 0.00 | 0.00 | 44 | 1021.6 |
| 20260904094036 | 82 | 181 | 0.0 | 1.7 | 0.00 | 0.00 | 0.00 | 45 | 1021.7 |
| 20260904093534 | 82 | 181 | 0.0 | 1.7 | 0.00 | 0.00 | 0.00 | 46 | 1021.7 |
| 20260904093040 | 82 | 181 | 0.0 | 0.9 | 0.00 | 0.00 | 0.00 | 45 | 1021.7 |
| 20260904092532 | 82 | 181 | 0.0 | 0.0 | 0.00 | 0.00 | 0.00 | 45 | 1021.9 |
| 20260904092033 | 82 | 195 | 0.0 | 2.6 | 0.00 | 0.00 | 0.00 | 45 | 1021.8 |
| 20260904091535 | 82 | 194 | 0.0 | 2.6 | 0.00 | 0.00 | 0.00 | 44 | 1021.7 |
| 20260904091029 | 82 | 22 | 0.0 | 1.7 | 0.00 | 0.00 | 0.00 | 47 | 1021.8 |
| 20260904090528 | 81 | 22 | 0.0 | 1.7 | 0.00 | 0.00 | 0.00 | 48 | 1021.8 |
| 20260904090026 | 80 | 22 | 0.0 | 0.0 | 0.00 | 0.00 | 0.00 | 50 | 1021.8 |
| 20260904085524 | 80 | 22 | 0.0 | 0.0 | 0.00 | 0.00 | 0.00 | 52 | 1021.9 |
| 20260904085023 | 79 | 22 | 0.0 | 0.0 | 0.00 | 0.00 | 0.00 | 53 | 1021.9 |
| 20260904084522 | 78 | 319 | 0.0 | 0.0 | 0.00 | 0.00 | 0.00 | 55 | 1021.9 |
| 20260904084021 | 76 | 319 | 0.0 | 0.0 | 0.00 | 0.00 | 0.00 | 56 | 1022.0 |
| 20260904083519 | 75 | 327 | 0.0 | 0.9 | 0.00 | 0.00 | 0.00 | 58 | 1022.0 |
| 20260904083018 | 75 | 332 | 0.0 | 0.9 | 0.00 | 0.00 | 0.00 | 59 | 1022.0 |
| 20260904082517 | 74 | 331 | 0.0 | 2.6 | 0.00 | 0.00 | 0.00 | 60 | 1022.1 |
| 20260904082014 | 74 | 332 | 0.0 | 2.6 | 0.00 | 0.00 | 0.00 | 60 | 1022.0 |
| 20260904081513 | 73 | 333 | 0.0 | 2.6 | 0.00 | 0.00 | 0.00 | 62 | 1022.0 |
| 20260904081011 | 72 | 332 | 0.0 | 3.5 | 0.00 | 0.00 | 0.00 | 62 | 1022.0 |
| 20260904080510 | 71 | 331 | 0.0 | 4.3 | 0.00 | 0.00 | 0.00 | 64 | 1022.0 |
| 20260904080009 | 71 | 312 | 0.9 | 3.5 | 0.00 | 0.00 | 0.00 | 65 | 1022.1 |
| 20260904075510 | 70 | 326 | 0.0 | 2.6 | 0.00 | 0.00 | 0.00 | 66 | 1022.1 |
| 20260904075006 | 69 | 317 | 0.0 | 5.2 | 0.00 | 0.00 | 0.00 | 66 | 1022.1 |
| 20260904074504 | 69 | 314 | 1.7 | 6.1 | 0.00 | 0.00 | 0.00 | 67 | 1022.1 |
| 20260904074003 | 68 | 314 | 0.0 | 3.5 | 0.00 | 0.00 | 0.00 | 69 | 1022.1 |
| 20260904073506 | 67 | 323 | 0.9 | 3.5 | 0.00 | 0.00 | 0.00 | 69 | 1022.1 |
| 20260904073001 | 67 | 323 | 0.9 | 3.5 | 0.00 | 0.00 | 0.00 | 71 | 1022.1 |
| 20260904072501 | 66 | 319 | 0.9 | 3.5 | 0.00 | 0.00 | 0.00 | 73 | 1022.3 |
| 20260904072100 | 65 | 240 | 0.0 | 1.7 | 0.00 | 0.00 | 0.00 | 74 | 1022.4 |
| 20260904071559 | 65 | 240 | 0.0 | 2.6 | 0.00 | 0.00 | 0.00 | 74 | 1022.5 |
| 20260904071059 | 64 | 242 | 0.9 | 2.6 | 0.00 | 0.00 | 0.00 | 75 | 1022.5 |
| 20260904070601 | 64 | 217 | 0.9 | 2.6 | 0.00 | 0.00 | 0.00 | 75 | 1022.5 |
| 20260904070058 | 64 | 216 | 0.0 | 3.5 | 0.00 | 0.00 | 0.00 | 76 | 1022.6 |
| 20260904065557 | 63 | 244 | 0.0 | 3.5 | 0.00 | 0.00 | 0.00 | 76 | 1022.6 |
| 20260904065057 | 63 | 342 | 0.0 | 4.3 | 0.00 | 0.00 | 0.00 | 77 | 1022.8 |
| 20260904064616 | 62 | 200 | 1.7 | 4.3 | 0.00 | 0.00 | 0.00 | 77 | 1022.8 |
| 20260904064057 | 62 | 202 | 0.0 | 3.5 | 0.00 | 0.00 | 0.00 | 78 | 1022.8 |
| 20260904063556 | 62 | 218 | 0.9 | 3.5 | 0.00 | 0.00 | 0.00 | 78 | 1022.8 |
| 20260904063113 | 61 | 211 | 0.0 | 2.6 | 0.00 | 0.00 | 0.00 | 79 | 1022.9 |
| 20260904062556 | 61 | 210 | 0.0 | 3.5 | 0.00 | 0.00 | 0.00 | 79 | 1023.0 |
| 20260904062059 | 61 | 322 | 0.9 | 4.3 | 0.00 | 0.00 | 0.00 | 79 | 1022.9 |
| 20260904061555 | 61 | 321 | 2.6 | 4.3 | 0.00 | 0.00 | 0.00 | 79 | 1022.9 |
| 20260904061055 | 60 | 288 | 2.6 | 4.3 | 0.00 | 0.00 | 0.00 | 80 | 1022.9 |
| 20260904060555 | 60 | 326 | 1.7 | 4.3 | 0.00 | 0.00 | 0.00 | 80 | 1022.8 |
| 20260904060109 | 60 | 311 | 2.6 | 4.3 | 0.00 | 0.00 | 0.00 | 81 | 1022.9 |
| 20260904055554 | 60 | 313 | 0.9 | 3.5 | 0.00 | 0.00 | 0.00 | 81 | 1022.9 |
| 20260904055053 | 59 | 311 | 1.7 | 5.2 | 0.00 | 0.00 | 0.00 | 81 | 1022.9 |
| 20260904054554 | 59 | 309 | 2.6 | 5.2 | 0.00 | 0.00 | 0.00 | 81 | 1023.0 |
| 20260904054053 | 59 | 317 | 1.7 | 5.2 | 0.00 | 0.00 | 0.00 | 81 | 1023.0 |
| 20260904053551 | 59 | 324 | 2.6 | 5.2 | 0.00 | 0.00 | 0.00 | 81 | 1022.9 |
| 20260904053151 | 59 | 326 | 1.7 | 4.3 | 0.00 | 0.00 | 0.00 | 81 | 1022.9 |
| 20260904052551 | 59 | 312 | 0.9 | 3.5 | 0.00 | 0.00 | 0.00 | 81 | 1022.9 |
| 20260904052050 | 59 | 292 | 0.9 | 7.0 | 0.00 | 0.00 | 0.00 | 81 | 1022.9 |
| 20260904051549 | 59 | 319 | 3.5 | 7.0 | 0.00 | 0.00 | 0.00 | 81 | 1022.9 |
| 20260904051048 | 59 | 332 | 2.6 | 5.2 | 0.00 | 0.00 | 0.00 | 81 | 1023.0 |
| 20260904050548 | 59 | 313 | 0.9 | 5.2 | 0.00 | 0.00 | 0.00 | 81 | 1023.0 |
| 20260904050050 | 59 | 326 | 1.7 | 5.2 | 0.00 | 0.00 | 0.00 | 81 | 1023.0 |
| 20260904045547 | 59 | 239 | 0.0 | 5.2 | 0.00 | 0.00 | 0.00 | 81 | 1023.0 |
| 20260904045047 | 59 | 316 | 1.7 | 5.2 | 0.00 | 0.00 | 0.00 | 81 | 1023.1 |
| 20260904044546 | 59 | 319 | 2.6 | 5.2 | 0.00 | 0.00 | 0.00 | 81 | 1023.1 |
| 20260904044046 | 59 | 319 | 2.6 | 4.3 | 0.00 | 0.00 | 0.00 | 81 | 1023.1 |
| 20260904043547 | 59 | 298 | 1.7 | 4.3 | 0.00 | 0.00 | 0.00 | 81 | 1023.2 |
| 20260904043046 | 60 | 306 | 1.7 | 4.3 | 0.00 | 0.00 | 0.00 | 81 | 1023.2 |
| 20260904042544 | 60 | 334 | 1.7 | 5.2 | 0.00 | 0.00 | 0.00 | 80 | 1023.1 |
| 20260904042043 | 60 | 317 | 2.6 | 5.2 | 0.00 | 0.00 | 0.00 | 81 | 1023.2 |
| 20260904041543 | 60 | 325 | 2.6 | 5.2 | 0.00 | 0.00 | 0.00 | 80 | 1023.3 |
| 20260904041041 | 60 | 325 | 1.7 | 4.3 | 0.00 | 0.00 | 0.00 | 81 | 1023.3 |
| 20260904040543 | 60 | 316 | 0.0 | 2.6 | 0.00 | 0.00 | 0.00 | 81 | 1023.4 |
| 20260904040044 | 60 | 305 | 0.0 | 4.3 | 0.00 | 0.00 | 0.00 | 80 | 1023.4 |
| 20260904035540 | 60 | 313 | 1.7 | 5.2 | 0.00 | 0.00 | 0.00 | 80 | 1023.5 |
| 20260904035039 | 60 | 321 | 2.6 | 5.2 | 0.00 | 0.00 | 0.00 | 80 | 1023.6 |
| 20260904034544 | 60 | 306 | 0.9 | 5.2 | 0.00 | 0.00 | 0.00 | 80 | 1023.6 |
| 20260904034038 | 60 | 311 | 1.7 | 5.2 | 0.00 | 0.00 | 0.00 | 80 | 1023.7 |
| 20260904033538 | 60 | 314 | 0.0 | 3.5 | 0.00 | 0.00 | 0.00 | 80 | 1023.6 |
| 20260904033038 | 60 | 317 | 0.0 | 3.5 | 0.00 | 0.00 | 0.00 | 80 | 1023.7 |
| 20260904032537 | 60 | 311 | 0.0 | 2.6 | 0.00 | 0.00 | 0.00 | 80 | 1023.6 |
| 20260904032036 | 60 | 309 | 0.9 | 3.5 | 0.00 | 0.00 | 0.00 | 80 | 1023.7 |
| 20260904031536 | 60 | 307 | 0.9 | 3.5 | 0.00 | 0.00 | 0.00 | 80 | 1023.7 |
| 20260904031036 | 60 | 282 | 0.0 | 1.7 | 0.00 | 0.00 | 0.00 | 79 | 1023.7 |
| 20260904030535 | 60 | 281 | 0.0 | 4.3 | 0.00 | 0.00 | 0.00 | 79 | 1023.8 |
| 20260904030037 | 60 | 295 | 0.0 | 5.2 | 0.00 | 0.00 | 0.00 | 80 | 1023.7 |
| 20260904025534 | 60 | 287 | 1.7 | 5.2 | 0.00 | 0.00 | 0.00 | 79 | 1023.8 |
| 20260904025033 | 61 | 311 | 2.6 | 5.2 | 0.00 | 0.00 | 0.00 | 79 | 1023.8 |
| 20260904024533 | 61 | 321 | 1.7 | 4.3 | 0.00 | 0.00 | 0.00 | 79 | 1023.9 |
| 20260904024033 | 61 | 325 | 2.6 | 5.2 | 0.00 | 0.00 | 0.00 | 79 | 1023.9 |
| 20260904023531 | 61 | 309 | 2.6 | 5.2 | 0.00 | 0.00 | 0.00 | 79 | 1023.9 |
| 20260904023037 | 61 | 315 | 0.9 | 3.5 | 0.00 | 0.00 | 0.00 | 79 | 1023.9 |
| 20260904022630 | 61 | 314 | 1.7 | 3.5 | 0.00 | 0.00 | 0.00 | 78 | 1023.9 |
| 20260904022029 | 61 | 313 | 1.7 | 4.3 | 0.00 | 0.00 | 0.00 | 78 | 1024.0 |
| 20260904021541 | 61 | 313 | 0.0 | 3.5 | 0.00 | 0.00 | 0.00 | 78 | 1024.0 |
| 20260904021027 | 61 | 312 | 0.9 | 1.7 | 0.00 | 0.00 | 0.00 | 78 | 1024.1 |
| 20260904020527 | 62 | 313 | 0.0 | 0.0 | 0.00 | 0.00 | 0.00 | 77 | 1024.0 |
| 20260904020028 | 62 | 313 | 0.0 | 4.3 | 0.00 | 0.00 | 0.00 | 77 | 1024.1 |
| 20260904015526 | 62 | 313 | 1.7 | 4.3 | 0.00 | 0.00 | 0.00 | 77 | 1024.2 |
| 20260904015028 | 62 | 313 | 0.0 | 3.5 | 0.00 | 0.00 | 0.00 | 77 | 1024.2 |
| 20260904014526 | 62 | 313 | 0.9 | 4.3 | 0.00 | 0.00 | 0.00 | 77 | 1024.2 |
| 20260904014025 | 62 | 316 | 1.7 | 5.2 | 0.00 | 0.00 | 0.00 | 77 | 1024.2 |
| 20260904013528 | 62 | 317 | 2.6 | 5.2 | 0.00 | 0.00 | 0.00 | 77 | 1024.2 |
| 20260904013024 | 62 | 309 | 1.7 | 4.3 | 0.00 | 0.00 | 0.00 | 77 | 1024.2 |
| 20260904012524 | 62 | 317 | 2.6 | 4.3 | 0.00 | 0.00 | 0.00 | 76 | 1024.4 |
| 20260904012024 | 62 | 315 | 2.6 | 4.3 | 0.00 | 0.00 | 0.00 | 76 | 1024.5 |
| 20260904011522 | 63 | 322 | 2.6 | 4.3 | 0.00 | 0.00 | 0.00 | 76 | 1024.4 |
| 20260904011021 | 63 | 315 | 2.6 | 4.3 | 0.00 | 0.00 | 0.00 | 76 | 1024.4 |
| 20260904010521 | 63 | 310 | 1.7 | 3.5 | 0.00 | 0.00 | 0.00 | 76 | 1024.4 |
| 20260904010021 | 63 | 309 | 0.0 | 3.5 | 0.00 | 0.00 | 0.00 | 75 | 1024.4 |
| 20260904005520 | 63 | 316 | 0.0 | 3.5 | 0.00 | 0.00 | 0.00 | 75 | 1024.5 |
| 20260904005024 | 63 | 321 | 1.7 | 4.3 | 0.00 | 0.00 | 0.00 | 75 | 1024.5 |
| 20260904004524 | 63 | 319 | 1.7 | 4.3 | 0.00 | 0.00 | 0.00 | 75 | 1024.6 |
| 20260904004020 | 63 | 315 | 1.7 | 4.3 | 0.00 | 0.00 | 0.00 | 75 | 1024.6 |
| 20260904003520 | 63 | 324 | 1.7 | 4.3 | 0.00 | 0.00 | 0.00 | 75 | 1024.6 |
| 20260904003024 | 63 | 305 | 2.6 | 4.3 | 0.00 | 0.00 | 0.00 | 75 | 1024.5 |
| 20260904002519 | 63 | 319 | 2.6 | 5.2 | 0.00 | 0.00 | 0.00 | 75 | 1024.5 |
| 20260904002017 | 63 | 319 | 2.6 | 5.2 | 0.00 | 0.00 | 0.00 | 75 | 1024.6 |
| 20260904001516 | 63 | 322 | 1.7 | 4.3 | 0.00 | 0.00 | 0.00 | 75 | 1024.6 |
| 20260904001016 | 64 | 317 | 1.7 | 4.3 | 0.00 | 0.00 | 0.00 | 75 | 1024.5 |
| 20260904000520 | 64 | 312 | 1.7 | 4.3 | 0.00 | 0.00 | 0.00 | 74 | 1024.5 |
| 20260904000015 | 64 | 321 | 1.7 | 4.3 | 0.00 | 0.00 | 0.00 | 74 | 1024.4 |
| 20260903235514 | 64 | 299 | 1.7 | 3.5 | 0.00 | 0.00 | 0.00 | 74 | 1024.4 |
| 20260903235012 | 64 | 277 | 0.0 | 0.0 | 0.00 | 0.00 | 0.00 | 74 | 1024.5 |
| 20260903234512 | 64 | 277 | 0.0 | 0.0 | 0.00 | 0.00 | 0.00 | 73 | 1024.5 |
| 20260903234011 | 64 | 277 | 0.0 | 0.0 | 0.00 | 0.00 | 0.00 | 73 | 1024.6 |
| 20260903233510 | 64 | 277 | 0.0 | 0.0 | 0.00 | 0.00 | 0.00 | 73 | 1024.7 |
| 20260903233016 | 65 | 277 | 0.0 | 0.0 | 0.00 | 0.00 | 0.00 | 73 | 1024.8 |
| 20260903232509 | 65 | 275 | 0.0 | 0.0 | 0.00 | 0.00 | 0.00 | 73 | 1024.7 |
| 20260903232008 | 65 | 275 | 0.0 | 2.6 | 0.00 | 0.00 | 0.00 | 72 | 1024.7 |
| 20260903231508 | 65 | 296 | 0.0 | 2.6 | 0.00 | 0.00 | 0.00 | 72 | 1024.7 |
| 20260903231007 | 65 | 294 | 0.9 | 2.6 | 0.00 | 0.00 | 0.00 | 72 | 1024.7 |
| 20260903230510 | 65 | 247 | 0.9 | 4.3 | 0.00 | 0.00 | 0.00 | 71 | 1024.8 |
| 20260903230007 | 65 | 324 | 0.9 | 4.3 | 0.00 | 0.00 | 0.00 | 72 | 1024.8 |
| 20260903225508 | 65 | 312 | 0.9 | 3.5 | 0.00 | 0.00 | 0.00 | 71 | 1024.7 |
| 20260903225007 | 66 | 308 | 0.9 | 3.5 | 0.00 | 0.00 | 0.00 | 71 | 1024.7 |
| 20260903224505 | 66 | 310 | 0.9 | 3.5 | 0.00 | 0.00 | 0.00 | 71 | 1024.7 |
| 20260903224004 | 66 | 304 | 0.9 | 3.5 | 0.00 | 0.00 | 0.00 | 70 | 1024.8 |
| 20260903223503 | 66 | 261 | 0.9 | 3.5 | 0.00 | 0.00 | 0.00 | 70 | 1024.8 |
| 20260903223002 | 66 | 313 | 0.9 | 3.5 | 0.00 | 0.00 | 0.00 | 70 | 1024.8 |
| 20260903222502 | 66 | 264 | 0.0 | 3.5 | 0.00 | 0.00 | 0.00 | 69 | 1024.8 |
| 20260903222004 | 67 | 309 | 1.7 | 3.5 | 0.00 | 0.00 | 0.00 | 69 | 1024.8 |
| 20260903221601 | 67 | 308 | 0.9 | 3.5 | 0.00 | 0.00 | 0.00 | 69 | 1024.8 |
| 20260903221059 | 67 | 308 | 0.9 | 3.5 | 0.00 | 0.00 | 0.00 | 69 | 1024.8 |
| 20260903220600 | 67 | 187 | 0.0 | 2.6 | 0.00 | 0.00 | 0.00 | 68 | 1024.8 |
| 20260903220100 | 67 | 187 | 0.9 | 2.6 | 0.00 | 0.00 | 0.00 | 68 | 1024.7 |
| 20260903215600 | 67 | 187 | 0.0 | 1.7 | 0.00 | 0.00 | 0.00 | 68 | 1024.8 |
| 20260903215058 | 67 | 187 | 0.0 | 2.6 | 0.00 | 0.00 | 0.00 | 68 | 1024.9 |
| 20260903214557 | 68 | 187 | 0.9 | 2.6 | 0.00 | 0.00 | 0.00 | 68 | 1024.9 |
| 20260903214059 | 68 | 187 | 0.0 | 2.6 | 0.00 | 0.00 | 0.00 | 68 | 1024.9 |
| 20260903213600 | 68 | 187 | 0.9 | 2.6 | 0.00 | 0.00 | 0.00 | 68 | 1024.9 |
| 20260903213110 | 68 | 187 | 1.7 | 2.6 | 0.00 | 0.00 | 0.00 | 67 | 1024.9 |
| 20260903212557 | 68 | 187 | 0.0 | 1.7 | 0.00 | 0.00 | 0.00 | 66 | 1024.9 |
| 20260903212057 | 68 | 187 | 0.0 | 0.9 | 0.00 | 0.00 | 0.00 | 66 | 1025.0 |
| 20260903211556 | 68 | 187 | 0.0 | 0.9 | 0.00 | 0.00 | 0.00 | 66 | 1024.9 |
| 20260903211056 | 69 | 187 | 0.0 | 0.9 | 0.00 | 0.00 | 0.00 | 66 | 1025.0 |
| 20260903210556 | 69 | 187 | 0.0 | 0.0 | 0.00 | 0.00 | 0.00 | 65 | 1025.0 |
| 20260903210059 | 69 | 187 | 0.0 | 0.0 | 0.00 | 0.00 | 0.00 | 64 | 1025.0 |
| 20260903205555 | 69 | 187 | 0.0 | 0.0 | 0.00 | 0.00 | 0.00 | 65 | 1025.0 |
| 20260903205055 | 69 | 187 | 0.0 | 0.0 | 0.00 | 0.00 | 0.00 | 64 | 1025.0 |
| 20260903204556 | 70 | 187 | 0.0 | 0.0 | 0.00 | 0.00 | 0.00 | 64 | 1025.0 |
| 20260903204056 | 70 | 187 | 0.0 | 0.0 | 0.00 | 0.00 | 0.00 | 63 | 1024.9 |
| 20260903203556 | 70 | 187 | 0.0 | 0.0 | 0.00 | 0.00 | 0.00 | 63 | 1024.9 |
| 20260903203057 | 70 | 187 | 0.0 | 0.0 | 0.00 | 0.00 | 0.00 | 62 | 1024.9 |
| 20260903202555 | 71 | 187 | 0.0 | 0.0 | 0.00 | 0.00 | 0.00 | 62 | 1024.8 |
| 20260903202055 | 71 | 187 | 0.0 | 0.0 | 0.00 | 0.00 | 0.00 | 61 | 1024.9 |
| 20260903201555 | 71 | 187 | 0.0 | 0.0 | 0.00 | 0.00 | 0.00 | 61 | 1024.8 |
| 20260903201057 | 71 | 187 | 0.0 | 0.0 | 0.00 | 0.00 | 0.00 | 61 | 1024.8 |
| 20260903200554 | 72 | 187 | 0.0 | 0.0 | 0.00 | 0.00 | 0.00 | 59 | 1024.8 |
| 20260903200056 | 72 | 187 | 0.0 | 0.0 | 0.00 | 0.00 | 0.00 | 59 | 1024.8 |
| 20260903195554 | 72 | 187 | 0.0 | 0.0 | 0.00 | 0.00 | 0.00 | 58 | 1024.8 |
| 20260903195054 | 72 | 187 | 0.0 | 0.0 | 0.00 | 0.00 | 0.00 | 58 | 1024.7 |
| 20260903194554 | 73 | 187 | 0.0 | 0.0 | 0.00 | 0.00 | 0.00 | 58 | 1024.7 |
| 20260903194054 | 73 | 187 | 0.0 | 0.0 | 0.00 | 0.00 | 0.00 | 57 | 1024.7 |
| 20260903193554 | 73 | 187 | 0.0 | 0.0 | 0.00 | 0.00 | 0.00 | 56 | 1024.7 |
| 20260903193054 | 74 | 187 | 0.0 | 0.0 | 0.00 | 0.00 | 0.00 | 55 | 1024.7 |
| 20260903192556 | 74 | 187 | 0.0 | 0.9 | 0.00 | 0.00 | 0.00 | 55 | 1024.6 |
| 20260903192052 | 74 | 187 | 0.0 | 0.9 | 0.00 | 0.00 | 0.00 | 55 | 1024.6 |
| 20260903191553 | 75 | 187 | 0.0 | 0.0 | 0.00 | 0.00 | 0.00 | 54 | 1024.6 |
| 20260903191056 | 75 | 187 | 0.0 | 0.0 | 0.00 | 0.00 | 0.00 | 54 | 1024.6 |
| 20260903190553 | 75 | 187 | 0.0 | 0.0 | 0.00 | 0.00 | 0.00 | 53 | 1024.7 |
| 20260903190052 | 76 | 187 | 0.0 | 0.0 | 0.00 | 0.00 | 0.00 | 52 | 1024.6 |
| 20260903185555 | 76 | 187 | 0.0 | 0.9 | 0.00 | 0.00 | 0.00 | 51 | 1024.5 |
| 20260903185052 | 76 | 187 | 0.0 | 0.9 | 0.00 | 0.00 | 0.00 | 51 | 1024.3 |
| 20260903184557 | 77 | 187 | 0.0 | 0.0 | 0.00 | 0.00 | 0.00 | 50 | 1024.2 |
| 20260903184053 | 77 | 187 | 0.0 | 0.0 | 0.00 | 0.00 | 0.00 | 50 | 1024.2 |
| 20260903183556 | 77 | 187 | 0.0 | 0.0 | 0.00 | 0.00 | 0.00 | 49 | 1024.2 |
| 20260903183052 | 78 | 187 | 0.0 | 0.0 | 0.00 | 0.00 | 0.00 | 48 | 1024.0 |
| 20260903182552 | 78 | 187 | 0.0 | 0.0 | 0.00 | 0.00 | 0.00 | 48 | 1024.1 |
| 20260903182054 | 78 | 187 | 0.0 | 0.0 | 0.00 | 0.00 | 0.00 | 47 | 1024.0 |
| 20260903181554 | 78 | 187 | 0.0 | 0.9 | 0.00 | 0.00 | 0.00 | 47 | 1023.9 |
| 20260903181051 | 78 | 187 | 0.0 | 0.9 | 0.00 | 0.00 | 0.00 | 47 | 1023.9 |
| 20260903180550 | 78 | 187 | 0.0 | 0.9 | 0.00 | 0.00 | 0.00 | 47 | 1023.8 |
| 20260903180101 | 79 | 187 | 0.0 | 1.7 | 0.00 | 0.00 | 0.00 | 46 | 1023.8 |
| 20260903175551 | 79 | 187 | 0.0 | 2.6 | 0.00 | 0.00 | 0.00 | 46 | 1023.9 |
| 20260903175051 | 79 | 187 | 0.0 | 2.6 | 0.00 | 0.00 | 0.00 | 46 | 1023.9 |
| 20260903174551 | 79 | 187 | 0.0 | 1.7 | 0.00 | 0.00 | 0.00 | 46 | 1023.8 |
| 20260903174050 | 79 | 187 | 0.9 | 1.7 | 0.00 | 0.00 | 0.00 | 46 | 1023.8 |
| 20260903173551 | 79 | 187 | 0.0 | 2.6 | 0.00 | 0.00 | 0.00 | 45 | 1023.8 |
| 20260903173051 | 80 | 187 | 0.0 | 3.5 | 0.00 | 0.00 | 0.00 | 45 | 1023.8 |
| 20260903172650 | 80 | 187 | 0.0 | 3.5 | 0.00 | 0.00 | 0.00 | 45 | 1023.9 |
| 20260903172050 | 80 | 119 | 0.0 | 0.9 | 0.00 | 0.00 | 0.00 | 45 | 1023.9 |
| 20260903171550 | 80 | 338 | 0.0 | 1.7 | 0.00 | 0.00 | 0.00 | 45 | 1023.9 |
| 20260903171049 | 80 | 355 | 0.0 | 1.7 | 0.00 | 0.00 | 0.00 | 44 | 1023.9 |
| 20260903170549 | 80 | 104 | 0.0 | 0.9 | 0.00 | 0.00 | 0.00 | 45 | 1024.0 |
| 20260903170051 | 80 | 255 | 0.0 | 2.6 | 0.00 | 0.00 | 0.00 | 44 | 1023.9 |
| 20260903165548 | 81 | 118 | 0.9 | 4.3 | 0.00 | 0.00 | 0.00 | 43 | 1023.9 |
| 20260903165048 | 81 | 344 | 0.9 | 4.3 | 0.00 | 0.00 | 0.00 | 43 | 1023.9 |
| 20260903164549 | 81 | 315 | 0.0 | 3.5 | 0.00 | 0.00 | 0.00 | 43 | 1023.9 |